Tracking 19145 objects as of 26-Apr-2018
HD Live streaming from Space Station
objects crossing your sky now

FENGYUN 1C DEB

Track FENGYUN 1C DEB now!
10-day predictions


NORAD ID: 31346
Int'l Code: 1999-025BRA
Perigee: 515.3 km
Apogee: 802.6 km
Inclination: 98.9 °
Period: 97.8 minutes
Semi major axis: 7029 km
RCS: 0.0162 m2 (small)
Launch date: May 10, 1999
Source: People's Republic of China (PRC)
Launch site: Taiyaun Space Center, China (TSC)

Note: This is SATELLITE DEBRIS
aabbcc
Your satellite tracking list
Your tracking list is empty




NASA's NSSDC Master Catalog

Two Line Element Set (TLE):
1 31346U 99025BRA 18114.46392329  .00000422  00000-0  56243-4 0  9997
2 31346  98.8963 113.3083 0204362 204.1964 311.0901 14.72900863591521
Source of the keplerian elements: AFSPC